Location: Carrizalito
(10.3833°N, 67.0217°W)
Time: 07:02:17
(UTC+00:00)

KAITUO 1B - Visible Passes

Search period start: 01 April 2023 00:00
Search period end: 11 April 2023 00:00
Orbit: 445 x 459 km, 97.4° (Epoch: 31 March)

Date Brightness Start Highest point End Pass type
(mag) Time Alt. Az. Time Alt. Az. Time Alt. Az.
01 Apr ? 23:24:32 10° SSW 23:27:18 24° W 23:30:03 10° NW visible
04 Apr ? 23:13:41 10° S 23:16:49 36° W 23:19:56 10° NNW visible
06 Apr ? 23:38:17 10° SW 23:40:16 15° W 23:42:16 10° WNW visible
07 Apr ? 23:02:15 10° S 23:05:34 61° WSW 23:08:53 10° NNW visible
09 Apr ? 23:25:46 10° SSW 23:28:31 23° W 23:31:16 10° NW visible
